AirNav   Phillips 66 Aviation Fuel
 
 482 users online  

KOXD Miami University Airport
Oxford, Ohio, USA

GOING TO OXFORD?


FAA INFORMATION EFFECTIVE 19 JULY 2018

Location

FAA Identifier: OXD
Lat/Long: 39-30-08.1000N / 084-47-03.7000W
39-30.135000N / 084-47.061667W
39.5022500 / -84.7843611
(estimated)
Elevation: 1040.5 ft. / 317.1 m (surveyed)
Variation: 04W (1995)
From city: 2 miles W of OXFORD, OH
Time zone: UTC -4 (UTC -5 during Standard Time)
Zip code: 45056

Airport Operations

Airport use: Open to the public
Activation date: 02/1940
Control tower: no
ARTCC: INDIANAPOLIS CENTER
FSS: DAYTON FLIGHT SERVICE STATION
NOTAMs facility: DAY (NOTAM-D service available)
Attendance: MON-FRI 0800-1800, ALL SAT-SUN 0900-1700
UNATND NEW YEARS DAY, THANKSGIVING, & CHRISTMAS.
Wind indicator: lighted
Segmented circle: no
Lights: MIRL RY 05/23 PRESET LOW INTST DUSK-2100; TO INCR INTST & ACTVT REIL RYS 05 & 23 - 122.9; AFT 2100 ACTVT MIRL RY 05/23 & REIL RYS 05 & 23 - 122.9.
Beacon: white-green (lighted land airport)
Operates sunset to sunrise.

Airport Communications

CTAF/UNICOM: 122.8
WX AWOS-3PT: 118.625 (513-273-2032)
CINCINNATI APPROACH: 121.0 [0600-2300]
CINCINNATI DEPARTURE: 121.0 [0600-2300]
WX AWOS-3PT at I67 (15 nm S): 118.15 (513-569-4964)
WX ASOS at HAO (15 nm SE): 121.425 (513-863-6137)
WX AWOS-3 at RID (15 nm N): 121.225 (765-983-1903)
WX AWOS-3 at MWO (18 nm E): 120.025 (513-422-3505)
WX AWOS-3 at CEV (20 nm NW): 118.325 (765-827-6649)

Nearby radio navigation aids

VOR radial/distance  VOR name  Freq  Var
RIDr174/15.4RICHMOND VORTAC110.6003W
CVGr357/29.4CINCINNATI VORTAC117.3004W
DQNr211/35.7DAYTON VOR/DME114.5001W

 
NDB name  Hdg/Dist  Freq  Var  ID
HOOK FIELD275/15.623904WHKF .... -.- ..-.
BATESVILLE072/23.925405WHLB .... .-.. -...
MADEIRA314/26.037904WMDE -- -.. .
CINCINNATI319/29.133504WLUK .-.. ..- -.-
NEW CASTLE139/33.538506WUWL ..- .-- .-..
SPORTYS318/36.724504WPWF .--. .-- ..-.

Airport Services

Fuel available: 100LL JET-A1+
SELF SERVE AVBL.
Parking: hangars and tiedowns
Bulk oxygen: NONE

Runway Information

Runway 5/23

Dimensions: 4011 x 70 ft. / 1223 x 21 m
Surface: asphalt/grooved, in good condition
Weight bearing capacity: 
Single wheel: 34.0
Double wheel: 50.0
Runway edge lights: medium intensity
Runway edge markings: MKGS FADED.
RUNWAY 5  RUNWAY 23
Latitude: 39-29.904358N39-30.366910N
Longitude: 084-47.367392W084-46.758348W
Elevation: 1040.1 ft.1034.1 ft.
Gradient: 0.3%0.3%
Traffic pattern: leftleft
Runway heading: 050 magnetic, 046 true230 magnetic, 226 true
Displaced threshold: 270 ft.no
Markings: nonprecision, in poor conditionnonprecision, in poor condition
Visual slope indicator: 2-light PAPI on left (3.00 degrees glide path)2-light PAPI on left (3.00 degrees glide path)
Runway end identifier lights: yesyes
Touchdown point: yes, no lightsyes, no lights
Obstructions: 10 ft. road, 201 ft. from runway, 115 ft. left of centerline
5 FT FENCE & 10 FT ROAD 75-200 FT FM THLD 250 FT L TO 122 FT L.
19 ft. trees, 435 ft. from runway, 170 ft. left of centerline, 12:1 slope to clear

Airport Ownership and Management from official FAA records

Ownership: Publicly-owned
Owner: MIAMI UNIVERSITY
MIAMI UNIVERSITY ARPT
OXFORD, OH 45056
Phone 513-529-1809
Manager: SCOTT SHAW
7101 FAIRFIELD ROAD
OXFORD, OH 45056
Phone 513-529-2735
ADDITIONAL PHONE NR 513-529-1855.

Airport Operational Statistics

Aircraft based on the field: 9
Single engine airplanes: 7
Multi engine airplanes: 2
    
Aircraft operations: avg 46/day *
86% local general aviation
13% transient general aviation
<1% air taxi
<1% military
* for 12-month period ending 01 September 2016

Additional Remarks

NO TXY MKGS.

Instrument Procedures

NOTE: All procedures below are presented as PDF files. If you need a reader for these files, you should download the free Adobe Reader.

NOT FOR NAVIGATION. Please procure official charts for flight.
FAA instrument procedures published for use from 19 July 2018 at 0901Z to 16 August 2018 at 0900Z.

 
IAPs - Instrument Approach Procedures
RNAV (GPS) RWY 05 **CHANGED**   download (243KB)
RNAV (GPS) RWY 23 **CHANGED**   download (226KB)
NOTE: Special Take-Off Minimums/Departure Procedures apply   download (164KB)

Other nearby airports with instrument procedures:

I67 - Cincinnati West Airport (15 nm S)
KHAO - Butler County Regional Airport-Hogan Field (15 nm SE)
KRID - Richmond Municipal Airport (15 nm N)
KMWO - Middletown Regional Airport/Hook Field (18 nm E)
KCEV - Mettel Field Airport (20 nm NW)
 
Loc | Ops | Rwys | IFR | FBO | Links
Com | Nav | Svcs | Stats | Notes


 
Area around KOXD (Miami University Airport)
 
Road maps at: MapQuest Bing Google
 
Aerial photo
WARNING: Photo may not be current or correct
Aerial photo of KOXD (Miami University Airport)
Photo taken 23-Sep-2014
looking north.

Do you have a better or more recent aerial photo of Miami University Airport that you would like to share? If so, please send us your photo.

 
Sectional chart

 
Airport distance calculator
Flying to Miami University Airport? Find the distance to fly.

From to KOXD

Sunrise and sunset
Times for 16-Aug-2018
 Local
(UTC-4)
 Zulu
(UTC)
Morning civil twilight06:2510:25
Sunrise06:5410:54
Sunset20:3300:33
Evening civil twilight21:0201:02

Current date and time
Zulu (UTC)  16-Aug-2018 10:28:17
Local (UTC-4)  16-Aug-2018 06:28:17
 
METAR
KI67 
15nm S 
161015Z AUTO 19004KT 10SM BKN120 20/18 A3000 RMK AO1
KHAO 
15nm SE 
161020Z AUTO 00000KT 10SM -RA FEW008 FEW100 SCT120 21/19 A3003 RMK AO2 P0001 T02060194
KRID 
15nm N 
161015Z AUTO 18009KT 7SM SCT040 SCT060 BKN085 18/18 A3002 RMK AO2 P0001
KMWO 
18nm E 
161015Z AUTO 17003KT 10SM -RA SCT110 21/20 A3002 RMK AO2 LTG DSNT S T02060198
KHLB 
24nm W 
161015Z AUTO RMK A01 PNO
KI68 
25nm E 
161015Z AUTO 15007KT 10SM RA SCT028 SCT044 BKN110 20/20 A3004 RMK AO1 T02000200
KMGY 
26nm E 
160953Z AUTO 17010KT 4SM RA BR FEW009 BKN100 OVC110 21/19 A3003 RMK AO2 SLP162 P0014 T02060189
KCVG 
28nm S 
160952Z 17008KT 9SM -RA FEW050 FEW090 OVC110 20/19 A3003 RMK AO2 SLP161 P0004 T02000194
TAF
KCVG 
28nm S 
160755Z 1608/1712 19007KT P6SM SCT045 BKN110 TEMPO 1608/1610 3SM -TSRA BR BKN045CB FM161200 18010KT P6SM -SHRA SCT025 OVC040 TEMPO 1613/1616 3SM -SHRA BR BKN025 FM161700 19011KT P6SM BKN040 OVC090 FM162100 20012KT P6SM VCTS BKN035CB OVC060 FM170100 20008KT P6SM BKN050 FM170700 21006KT 5SM BR OVC012
KLUK 
30nm SE 
160755Z 1608/1706 20005KT P6SM SCT050 BKN110 TEMPO 1608/1610 3SM -TSRA BR BKN050CB FM161200 20010KT P6SM -SHRA SCT028 OVC045 TEMPO 1613/1616 3SM -SHRA BR BKN028 FM161700 20011KT P6SM OVC045 FM162100 21012KT P6SM VCTS BKN040CB OVC070 FM170100 22008KT 5SM BR BKN050
NOTAMs
Click for the latest NOTAMs
NOTAMs are issued by the DoD/FAA and will open in a separate window not controlled by AirNav.

 

 
 

FBO, Fuel Providers, and Aircraft Ground Support

  
 Business Name 
 
 Contact 
 
 Services / Description 
 
Fuel Prices
 
Comments
  
Miami University Airport 513-529-2735
513-529-1855
[web site]
[email]
Airport management, Aviation fuel, Aircraft parking (ramp or tiedown), Hangars, Pilots lounge / snooze room, Public telephone, Computerized weather, Restrooms

More info about Miami University Airport
EPIC
100LL Jet A
AS $4.99 --- 
FS $4.99 $3.99 
 Updated 15-Aug-2018
 
   3 read write
AS=Assisted/Self Service
FS=Full service
Update Fuel Prices
 

Would you like to see your business listed on this page?

 If your business provides an interesting product or service to pilots, flight crews, aircraft, or users of the Miami University Airport, you should consider listing it here.  To start the listing process, click on the button below
 
Add a business
 

Other Pages about Miami University Airport

Miami University Airport
 
Update a link
 
Copyright © AirNav, LLC. All rights reserved. Privacy Policy  Contact